Home   Weather   Nampula   Past weeks

Flag for Mozambique Past Weather in Nampula, Mozambique — Yesterday and Last 2 Weeks

Now
77 °F

Passing clouds.


Feels Like: 79 °F
Forecast: 70 / 87 °F
Wind: 10 mph from East

Location: Nampula Airport

Current Time: Dec 3, 2016 at 9:59:17 pm

Latest Report: Dec 3, 2016 at 9:00 pm


Visibility: N/A

Pressure: 29.98 "Hg

Humidity: 79%

Dew Point: 70 °F

Location of NampulaLocation

Past Weather in Nampula — Graph

°F

Nampula Temperature Yesterday

Maximum temperature yesterday: 97 °F (at 3:00 pm)
Minimum temperature yesterday: 73 °F (at 3:00 am)
Average temperature yesterday: 84 °F

High & Low Weather Summary for the Past Weeks

 TemperatureHumidityPressure
High102 °F (Nov 19, 1:00 pm)100% (Nov 21, 2:00 am)30.12 "Hg (Nov 21, 2:00 am)
Low70 °F (Nov 21, 9:00 am)31% (Nov 19, 1:00 pm)29.80 "Hg (Nov 25, 3:00 pm)
Average83 °F65%29.94 "Hg
* Reported Nov 18 7:00 pm — Dec 3 7:00 pm, Nampula, Weather by CustomWeather, © 2016

Note: Actual official high and low records may vary slightly from our data, if they occured in-between our weather recording intervals... More about our weather records

Advertising

Nampula Weather History for the Previous 24 Hours

Scroll right to see more
 ConditionsComfort  
Time TempWeatherWind HumidityBarometerVisibility
7:00 pm
Sat, Dec 3
77 °FPartly cloudy.8 mph79%29.95 "HgN/A
5:00 pm77 °FThunderstorms. Broken clouds.6 mph83%29.92 "HgN/A
3:00 pm93 °FPartly sunny.6 mph44%29.86 "HgN/A
1:00 pm91 °FBroken clouds.5 mph49%29.92 "HgN/A
12:00 pm90 °FBroken clouds.5 mph52%29.92 "HgN/A
11:00 am90 °FScattered clouds.5 mph49%29.95 "HgN/A
10:00 am86 °FScattered clouds.5 mph62%29.98 "HgN/A
9:00 am86 °FScattered clouds.3 mph62%29.98 "HgN/A
8:00 am81 °FBroken clouds.5 mph70%30.01 "HgN/A
7:00 am79 °FScattered clouds.5 mph79%29.98 "HgN/A
6:00 am77 °FBroken clouds.2 mph89%29.98 "HgN/A
5:00 am75 °FScattered clouds.3 mph94%29.98 "HgN/A
4:00 am77 °FPassing clouds.5 mph83%29.95 "HgN/A
3:00 am77 °FPassing clouds.5 mph83%29.92 "HgN/A
2:00 am77 °FPassing clouds.7 mph83%29.92 "HgN/A
12:00 am81 °FPassing clouds.6 mph74%29.89 "HgN/A
11:00 pm
Fri, Dec 2
81 °FPassing clouds.9 mph79%29.95 "HgN/A
10:00 pm81 °FPassing clouds.10 mph79%29.92 "HgN/A
9:00 pm82 °FPassing clouds.12 mph70%29.92 "HgN/A
Weather by CustomWeather, © 2016

See weather overviewHow to use our weather pages